GEFSSGP_con_cape1000_228.txt.gz
Probability
3 0 3 3 0 0 0 0 0 3 3 3 3 3 0 0 0 0 0 3 23 35 52 71 90 90 87 87 90 90 90 90 87 87 87 90 84 94 87 87 84 81 84 84 84 84 77 77 77
3 3 3 0 0 0 0 0 3 3 3 3 3 3 3 3 0 0 6 23 35 42 48 61 87 94 97 94 94 90 84 90 90 90 90 94 94 90 90 94 94 87 84 84 77 77 71 77 77
3 3 3 0 0 0 0 0 3 3 3 3 3 3 10 3 0 0 13 29 29 29 45 74 87 90 94 97 97 87 87 90 90 90 90 90 94 90 90 87 87 84 77 81 74 71 71 71 71
0 0 0 0 0 0 0 0 3 3 3 3 3 13 19 13 10 6 19 32 26 26 55 87 90 87 90 97 97 94 87 90 87 87 87 94 94 94 84 84 84 81 71 81 71 74 71 68 61
0 0 0 0 0 0 0 0 3 6 3 6 10 10 13 13 23 19 23 29 29 32 52 77 90 94 97 97 97 97 90 94 94 90 90 94 94 90 87 90 84 81 74 71 74 68 61 65 58
0 0 0 0 0 0 3 3 3 6 10 10 13 13 16 10 23 23 23 23 35 39 55 74 97 97 97 97 97 97 94 90 90 94 94 94 90 90 90 90 81 81 74 71 71 68 68 61 68
0 0 0 0 0 0 0 3 6 10 10 10 13 16 16 16 16 13 26 29 45 52 52 61 71 81 94 97 97 97 94 94 90 90 90 90 90 90 90 87 87 77 81 68 65 61 65 55 58
0 0 0 0 0 0 0 6 10 16 13 13 16 19 16 19 16 13 23 23 39 48 45 42 48 65 77 84 97 97 94 90 90 87 87 84 84 84 84 87 81 74 74 68 65 58 55 58 65
0 0 0 0 0 3 0 13 16 19 13 16 16 23 26 19 13 10 23 26 32 35 35 39 39 48 58 71 87 87 84 87 84 81 84 58 32 35 52 71 68 71 65 61 68 58 68 71 68
0 0 0 0 0 3 3 13 16 13 16 13 26 32 29 19 16 13 13 23 26 32 35 26 29 35 45 65 58 48 58 42 39 32 32 26 10 16 42 61 74 68 68 65 74 74 61 42 19
0 0 0 0 3 3 6 16 16 10 10 13 29 32 32 19 16 6 6 6 19 23 35 26 23 29 29 26 29 26 26 23 23 23 19 13 6 6 13 13 23 19 42 26 35 35 26 29 13
0 0 0 3 0 3 10 6 16 10 6 13 29 32 29 19 13 10 10 6 13 16 26 19 19 16 19 23 23 26 26 23 19 19 13 6 6 6 13 10 13 6 13 10 13 10 13 3 0
0 0 0 0 3 6 10 13 13 13 19 32 35 35 29 26 19 19 16 10 10 16 16 16 19 16 13 16 13 19 23 16 13 10 10 6 6 10 10 6 6 10 10 10 3 6 10 6 6
0 0 0 3 6 10 10 16 19 13 23 39 42 39 35 29 19 19 19 13 10 13 16 13 16 16 10 10 10 13 16 16 10 10 6 6 6 10 6 6 3 3 6 6 10 6 6 6 13
0 0 0 0 10 10 16 23 26 26 26 39 42 42 35 26 26 26 19 13 10 3 13 16 13 19 13 10 13 13 13 16 6 10 6 6 6 6 6 6 3 6 3 6 6 6 6 6 3
0 0 0 0 3 3 10 6 16 23 26 19 26 35 29 19 19 23 23 19 19 19 13 13 32 19 6 6 10 16 19 10 10 6 6 10 13 3 6 6 3 6 13 10 10 6 10 3 3
0 0 0 0 3 0 3 10 19 19 26 26 23 19 23 16 16 23 23 29 26 23 23 19 29 29 19 10 13 13 19 13 16 13 13 6 13 6 6 6 6 10 13 13 13 13 6 3 3
0 0 0 0 3 0 3 10 16 19 23 26 23 23 23 26 26 23 29 32 29 29 23 35 29 35 23 10 16 13 16 16 19 13 13 13 13 13 6 6 6 6 13 13 10 6 3 3 3
0 0 0 0 0 0 0 6 13 13 19 19 19 16 16 19 16 26 26 29 35 32 29 35 39 29 19 26 23 23 13 13 16 16 13 13 6 23 10 10 6 10 10 13 6 3 3 3 3
0 0 0 0 0 0 3 6 16 13 13 13 19 16 19 13 16 19 23 32 32 32 32 35 42 35 32 29 32 19 16 16 16 19 13 13 19 23 19 13 13 6 10 6 6 3 3 3 3
0 0 0 0 0 0 3 6 10 13 19 16 16 13 16 16 16 13 23 32 29 32 32 35 35 42 35 32 29 29 19 19 19 19 13 10 19 16 19 13 13 13 13 13 10 6 3 10 0
0 0 0 0 0 0 0 0 3 13 13 16 13 19 19 23 23 23 23 32 39 39 39 32 26 29 32 29 29 29 32 32 23 10 19 16 13 23 16 13 16 13 13 13 13 13 6 6 10
0 0 0 0 0 0 0 0 0 0 13 10 13 19 23 23 19 23 29 35 45 48 45 35 29 32 29 26 32 32 29 23 10 16 19 19 16 16 26 23 13 13 13 13 13 16 13 10 10
0 0 0 0 0 0 0 0 0 0 0 3 16 19 19 19 19 19 23 29 35 39 48 45 35 32 32 35 35 26 26 26 16 13 23 16 19 19 19 32 23 16 13 13 13 16 16 10 10
0 0 0 0 0 0 0 0 0 0 3 6 13 23 26 23 23 16 16 26 29 35 45 48 39 32 35 39 39 39 29 26 19 16 10 10 16 19 16 19 23 16 19 16 13 13 13 10 6
0 0 0 0 0 0 0 0 0 3 6 6 6 13 16 16 13 13 19 26 23 32 39 45 42 39 35 42 42 39 29 26 23 16 13 16 16 16 19 16 10 16 16 16 16 13 13 10 10
0 0 0 0 0 0 0 0 3 6 10 13 10 10 16 13 10 19 16 29 29 32 35 42 45 42 39 42 39 35 29 29 23 16 16 16 16 16 19 16 13 10 19 16 10 13 16 10 6
0 0 0 0 0 0 0 0 3 6 13 13 13 16 16 16 19 19 23 26 32 29 29 39 35 39 39 45 45 45 32 35 29 26 19 16 16 16 13 13 16 6 6 13 10 6 6 10 3
0 0 0 0 0 0 0 0 3 3 10 13 16 16 16 26 29 23 26 32 32 42 39 45 45 42 45 42 45 48 45 39 23 26 23 23 13 13 23 13 16 16 10 6 10 10 10 6 10
0 0 0 0 0 0 0 0 3 6 13 13 16 13 16 16 29 32 32 32 32 42 45 39 48 58 48 48 48 48 42 39 29 32 23 26 26 26 26 19 16 19 19 19 13 13 13 13 13

GEFSSGP_con_cape1000_234.txt.gz
Probability
3 6 10 23 10 0 0 0 0 0 3 0 3 0 0 6 3 6 3 6 13 19 42 55 90 90 90 84 81 84 87 84 84 87 90 90 90 90 90 87 87 84 81 77 74 77 77 77 81
3 3 13 13 0 0 0 0 0 0 3 3 3 3 6 10 6 0 3 13 13 23 45 71 90 90 87 87 84 90 90 90 87 90 94 94 87 90 84 87 84 84 84 77 71 74 74 74 74
6 6 6 0 0 0 0 0 0 6 3 3 3 6 6 10 3 6 10 16 19 26 42 84 90 90 87 87 87 87 90 94 94 90 90 90 87 87 87 84 87 87 84 74 74 68 71 68 68
3 3 0 0 0 0 0 0 0 6 3 3 3 6 16 10 10 13 16 10 10 19 32 74 87 94 94 90 84 87 87 90 90 90 87 87 87 87 81 81 87 87 77 71 74 74 61 61 55
0 0 0 0 0 0 0 0 3 3 3 3 3 3 16 26 13 16 16 6 16 26 48 65 84 100 97 87 90 84 84 90 90 90 87 87 87 84 81 84 84 81 84 81 77 68 52 61 58
0 0 0 0 0 0 0 0 0 3 3 3 3 3 19 23 13 10 13 10 19 32 42 65 77 90 97 94 97 84 87 94 90 90 90 87 84 77 77 74 81 81 81 71 71 58 55 48 52
0 0 0 0 0 0 0 0 0 3 3 3 0 3 23 32 23 13 16 13 16 35 45 48 58 74 90 90 87 87 90 90 90 90 87 90 84 77 81 77 74 71 68 65 52 58 58 48 55
0 0 0 0 0 0 0 13 10 3 3 0 0 3 10 32 26 16 13 16 29 35 39 42 39 52 68 74 87 87 81 84 87 81 84 81 74 74 74 81 74 65 61 61 55 61 58 55 61
0 0 0 0 0 0 3 6 3 3 0 6 6 0 6 32 29 26 32 29 26 39 45 45 42 55 52 48 65 77 74 74 81 71 74 74 52 35 58 61 68 68 65 61 58 65 55 55 58
0 0 0 0 0 0 3 6 6 3 3 16 19 19 32 32 35 19 26 29 26 35 45 52 35 42 39 35 65 61 61 74 65 65 61 55 55 39 29 52 68 68 65 65 61 58 52 52 42
0 0 0 0 0 0 3 6 6 6 3 16 23 39 35 29 23 19 23 19 16 29 32 45 48 61 52 55 45 65 68 77 61 61 71 68 48 35 48 61 61 68 55 45 58 48 32 39 45
0 0 0 0 0 0 6 6 6 6 6 23 39 42 45 32 35 19 19 19 23 23 42 42 61 81 81 58 48 55 55 55 52 74 58 55 61 52 52 71 55 61 61 68 52 58 39 39 32
0 0 0 0 3 6 10 10 6 13 26 26 32 45 39 35 35 26 23 26 26 29 35 48 71 81 84 90 68 45 48 45 61 68 68 65 48 58 52 68 81 61 58 55 61 58 58 52 42
0 0 0 3 10 13 10 16 16 26 35 39 45 42 39 32 35 29 23 29 29 29 39 48 65 74 84 87 84 71 55 84 55 55 61 68 55 65 71 71 87 74 74 55 65 55 71 58 52
0 3 10 10 6 13 13 16 26 39 39 45 45 45 48 45 39 42 45 39 35 35 45 58 68 71 74 74 81 74 65 71 61 68 68 74 71 77 68 68 68 68 77 77 74 68 68 65 58
0 0 0 13 13 10 3 13 32 45 45 48 48 48 55 52 45 45 52 55 48 48 68 65 42 61 77 77 84 71 68 77 74 71 68 74 74 74 77 74 58 74 81 77 87 71 71 71 58
0 0 0 10 10 6 6 13 35 45 48 45 52 52 61 58 58 65 61 55 52 65 81 74 71 77 77 81 84 84 87 81 81 71 77 74 74 74 74 74 77 74 71 71 61 65 68 65 58
0 0 0 3 10 10 13 13 35 39 48 45 45 55 65 58 61 65 65 61 61 71 77 77 81 84 84 87 90 87 84 77 77 71 74 74 74 74 77 65 74 68 65 68 81 74 77 71 61
0 0 3 6 3 10 10 13 26 35 42 39 48 58 65 61 58 65 65 68 68 74 77 81 81 87 87 94 87 84 81 77 77 77 74 71 71 68 74 68 81 77 74 74 55 68 71 61 61
0 0 3 3 6 3 3 13 23 32 35 45 48 61 61 68 65 65 65 71 65 77 77 84 87 87 90 90 90 94 77 74 74 77 84 74 74 71 65 84 71 71 77 68 68 74 58 48 55
3 3 6 6 6 6 3 6 19 35 29 42 45 55 55 61 68 74 71 77 74 81 84 84 87 84 84 84 87 87 90 87 77 74 81 81 74 65 71 81 74 81 65 68 71 77 61 48 55
3 3 6 3 6 3 3 0 19 35 35 45 48 55 55 52 61 65 77 77 77 77 77 81 84 87 84 87 87 90 90 90 84 84 84 87 81 81 71 71 77 84 68 77 68 65 68 65 65
0 0 3 3 6 3 0 0 0 23 35 39 48 55 58 58 65 74 74 71 81 77 77 81 84 87 87 90 90 90 90 90 77 81 90 87 81 77 77 84 81 84 77 71 71 68 71 61 55
0 3 6 6 0 0 6 0 0 13 23 26 32 45 58 61 61 65 71 71 81 81 77 81 77 84 87 87 90 90 87 87 87 84 84 90 87 81 77 74 77 81 81 77 74 71 65 71 71
0 0 0 0 3 3 3 0 3 16 13 16 23 32 39 42 45 55 61 71 77 77 77 74 81 84 84 87 87 87 84 84 81 84 81 81 81 84 81 68 81 77 77 71 74 71 71 71 71
0 0 0 0 0 3 3 3 6 13 13 19 26 19 35 45 58 55 58 65 77 77 74 77 81 81 81 84 84 77 77 77 74 81 81 74 81 81 81 77 71 71 74 58 65 61 61 52 61
0 0 0 0 0 0 3 3 10 19 32 26 26 29 35 48 58 61 65 71 77 77 81 74 77 81 77 77 77 77 77 74 74 74 71 71 74 74 77 74 71 77 68 61 61 45 55 52 48
0 0 0 0 0 0 3 3 3 23 32 26 26 26 48 52 55 61 68 68 77 74 81 77 84 77 77 77 74 74 74 74 71 68 68 71 71 71 77 74 68 68 58 55 58 52 48 48 52
0 0 0 0 0 0 0 0 3 29 35 35 32 39 52 55 52 55 65 61 68 77 77 81 77 77 77 74 74 74 74 71 68 68 68 71 74 74 77 71 71 61 52 48 48 45 48 48 45
0 0 0 0 0 0 0 3 10 23 29 32 35 35 39 45 48 55 68 74 74 77 77 81 74 74 71 71 71 68 65 65 65 65 71 71 65 68 68 71 71 52 48 42 42 42 42 42 45

GEFSSGP_con_cape1000_240.txt.gz
Probability
0 3 16 32 35 16 3 0 0 0 0 3 6 10 3 13 6 6 6 13 26 29 42 77 87 90 90 87 90 87 84 87 90 90 87 87 84 84 84 84 81 77 68 71 68 65 74 71 68
3 10 19 23 19 6 0 0 0 0 6 6 10 6 0 0 0 3 10 26 26 23 48 65 84 87 84 87 90 87 87 84 90 84 81 84 87 84 87 87 87 81 81 61 65 65 65 68 61
3 6 13 13 3 0 0 3 3 3 0 3 3 3 3 3 3 3 23 32 29 48 61 84 84 81 81 84 87 84 84 87 84 84 87 84 84 87 84 84 87 81 81 77 68 71 68 68 55
6 10 13 3 0 0 0 0 3 3 0 0 0 6 10 6 10 10 26 23 35 48 55 74 84 87 87 87 94 94 94 90 84 84 87 84 84 84 84 87 90 84 81 74 61 65 58 52 52
3 6 0 0 0 0 0 0 0 0 0 3 6 13 16 16 13 13 23 32 29 39 52 74 84 94 90 87 90 97 97 87 87 87 87 87 87 84 81 84 84 81 81 71 58 61 58 52 48
0 3 0 0 0 0 0 0 0 0 3 3 13 13 16 19 16 16 19 23 26 39 48 77 87 90 94 87 84 87 94 90 94 84 81 84 84 84 84 81 77 74 68 71 65 58 55 45 45
0 0 0 0 0 0 0 0 0 0 0 0 10 13 6 16 19 26 26 26 26 32 35 55 81 81 87 90 84 90 94 90 90 84 81 77 77 81 77 77 74 65 65 65 61 55 52 52 48
0 0 0 0 0 0 0 0 0 0 0 0 6 13 19 13 16 19 26 29 39 39 39 48 65 71 71 74 87 90 94 87 84 81 77 77 77 71 74 84 77 71 68 65 61 61 55 52 45
0 0 0 0 0 0 0 0 3 0 3 6 10 16 19 16 13 19 23 26 42 39 55 42 45 68 52 52 61 84 87 84 81 74 77 77 65 58 77 61 71 52 65 61 55 65 58 52 55
0 0 0 0 0 0 0 0 6 6 6 10 19 19 23 13 13 19 19 26 29 29 48 58 55 55 48 45 77 81 71 77 74 81 81 84 81 81 42 58 77 71 71 68 74 71 68 61 35
0 0 0 0 0 0 3 3 6 10 3 10 26 26 16 13 23 26 26 29 32 39 39 48 55 87 61 68 74 87 77 90 84 77 74 77 68 71 68 68 71 77 68 65 71 65 61 58 58
0 0 0 0 0 0 3 3 6 10 6 13 19 26 19 13 23 26 32 32 39 42 48 45 68 84 97 97 84 90 87 87 84 84 81 77 84 84 81 77 84 84 84 77 81 81 65 55 48
0 0 0 0 0 0 3 6 6 13 16 6 19 26 26 16 23 35 35 35 42 48 58 74 81 87 94 94 94 87 90 87 87 87 87 87 84 87 84 87 87 87 84 77 81 84 77 68 61
0 0 0 0 0 3 6 6 10 16 19 19 26 26 23 29 29 29 32 42 48 55 65 77 81 87 84 90 94 90 90 94 87 90 87 81 87 84 87 87 87 84 87 84 84 84 77 77 68
0 0 0 0 0 3 6 6 13 13 16 23 23 29 26 32 35 35 39 55 48 58 71 77 81 84 84 87 90 94 90 87 90 87 90 84 87 87 81 84 84 90 90 84 84 81 77 74 68
0 0 0 0 0 0 6 10 13 19 19 26 23 23 29 32 29 39 39 48 48 58 77 74 65 77 87 87 94 94 90 87 87 87 94 87 84 87 81 87 84 84 84 87 87 84 77 84 74
0 0 0 0 0 0 10 10 16 19 23 26 26 26 26 32 32 45 42 45 48 77 81 84 87 81 84 87 94 90 94 90 90 87 87 87 81 84 87 84 90 84 84 87 68 77 81 81 74
0 0 0 0 0 6 10 19 16 16 23 26 32 32 39 35 48 45 45 45 61 87 84 81 90 90 90 90 94 94 94 90 87 87 84 77 81 87 84 87 84 87 87 90 87 77 81 77 81
0 0 3 0 0 3 10 23 26 23 23 26 32 39 48 42 42 45 45 48 58 81 87 94 90 90 94 94 90 94 90 90 87 90 81 77 81 84 97 81 87 94 84 81 77 74 74 74 74
0 0 3 3 3 6 13 19 19 23 23 29 42 39 39 48 52 68 58 58 71 87 90 94 90 97 97 97 97 97 94 94 90 90 87 74 77 77 77 97 94 87 84 77 77 84 81 71 74
0 0 3 0 3 6 6 6 19 19 16 23 29 48 39 48 48 68 71 77 68 87 87 84 90 97 97 94 97 94 97 94 94 94 94 90 84 81 81 84 94 84 74 74 77 84 84 71 77
0 0 0 0 3 3 0 3 10 13 16 23 32 42 42 39 55 68 74 77 77 81 81 90 94 94 97 97 94 94 94 94 94 90 94 87 84 77 81 84 90 90 84 87 81 74 81 74 71
0 0 0 0 3 0 0 0 3 6 6 19 32 42 42 35 48 68 71 77 77 77 84 84 87 90 90 94 94 94 94 90 84 84 87 84 87 87 81 81 87 87 84 84 81 77 84 81 77
0 0 0 0 0 0 0 0 3 3 6 19 35 39 42 39 45 61 74 77 84 77 84 84 87 90 87 90 87 84 81 84 81 81 77 81 81 81 74 71 74 77 84 77 77 77 77 77 74
0 0 0 0 0 0 0 0 6 6 10 19 32 35 35 35 42 52 68 81 87 90 87 87 87 87 84 81 84 84 81 74 77 77 74 74 77 71 71 71 77 81 84 74 77 81 74 68 74
0 0 0 0 0 0 0 0 10 10 13 19 26 32 29 29 42 52 61 74 87 87 81 84 84 84 81 74 77 74 74 74 74 77 74 71 74 71 74 77 74 84 74 68 74 71 58 61 68
0 0 0 0 0 0 0 6 13 13 16 16 19 23 32 39 39 48 52 71 81 84 81 81 84 81 81 77 81 81 77 74 74 74 74 71 71 71 77 74 77 74 65 61 58 61 71 68 68
0 0 0 0 3 0 0 10 23 23 19 16 19 23 29 42 42 48 52 74 77 77 77 81 81 77 77 77 77 77 81 77 81 77 71 71 74 74 74 74 74 65 61 58 61 55 55 55 58
0 0 0 0 6 0 0 3 6 29 23 23 23 26 35 35 39 45 58 71 84 81 81 84 84 81 84 81 77 81 77 74 74 71 71 71 74 71 71 71 65 68 65 65 61 55 55 52 52
0 0 0 0 6 3 3 6 13 19 29 29 29 29 26 32 32 45 48 65 74 74 77 84 87 84 84 77 77 74 77 74 71 71 71 71 71 68 65 65 61 65 61 58 48 42 45 45 48

GEFSSGP_con_cape1000_246.txt.gz
Probability
10 0 0 13 0 0 0 0 3 3 0 0 0 0 0 0 0 3 0 0 19 55 71 81 90 87 90 84 84 87 87 87 87 87 87 87 87 94 94 90 87 87 74 74 74 71 65 68 68
0 0 6 6 0 0 0 0 3 3 0 0 0 0 3 3 3 3 0 3 29 45 55 71 87 90 87 87 84 87 87 87 84 84 87 87 87 94 97 87 87 81 77 71 65 61 65 65 61
3 3 6 3 0 0 0 0 3 6 3 6 3 3 3 3 3 3 0 3 23 35 61 77 84 90 87 84 90 90 84 84 87 84 84 87 87 94 94 90 87 77 71 65 58 58 58 58 61
3 3 6 0 0 0 0 0 3 3 3 3 6 6 3 6 13 10 6 19 29 48 61 74 90 94 90 90 94 94 90 84 81 84 84 87 87 90 90 87 87 77 77 61 58 58 58 58 55
0 0 0 0 0 0 3 3 3 3 0 3 3 3 6 10 19 19 16 16 29 48 68 77 97 97 97 90 94 90 90 90 87 87 87 90 87 84 87 87 87 81 77 65 58 52 52 58 61
0 0 0 0 0 0 0 0 0 0 3 3 3 3 0 10 13 13 16 23 29 48 71 74 90 97 97 94 90 94 90 90 94 87 87 90 90 84 84 87 84 77 81 68 68 52 52 58 61
0 0 0 0 0 0 0 0 0 6 3 0 0 0 0 10 16 10 16 23 32 48 61 71 74 87 94 94 94 94 90 94 90 87 84 87 84 87 84 84 81 74 77 71 65 48 52 52 58
0 0 0 0 0 0 0 0 0 0 6 0 0 0 3 10 6 6 13 16 26 39 55 52 52 65 68 81 90 90 90 90 87 81 84 84 81 81 77 81 81 81 84 74 65 55 55 61 68
0 0 0 0 0 0 0 3 3 3 3 0 0 0 3 6 3 3 6 10 16 32 35 42 45 45 48 55 81 87 87 87 84 77 81 71 42 52 71 68 77 74 81 68 61 61 74 71 68
0 0 0 0 0 0 6 3 3 6 0 0 0 3 13 10 10 6 10 13 13 19 19 19 32 29 32 39 48 52 58 48 39 35 45 32 16 19 42 61 84 74 74 65 68 77 71 48 32
0 0 0 0 3 3 6 6 6 6 0 0 0 3 10 6 10 13 10 6 10 10 13 16 16 13 13 10 16 19 19 13 13 19 19 6 10 10 19 19 42 39 52 32 35 42 35 23 13
0 0 0 0 3 3 6 10 10 13 6 10 3 3 3 10 13 13 10 6 6 6 13 19 19 16 10 16 26 16 16 16 10 13 13 10 10 6 10 10 13 13 10 10 10 10 10 13 13
0 0 0 3 3 3 10 13 16 13 16 6 10 6 10 13 13 10 10 6 6 10 16 23 23 19 26 29 29 32 23 26 19 16 16 16 13 13 10 13 16 10 13 13 16 13 10 16 16
0 0 3 6 3 6 10 16 23 19 16 10 6 6 6 6 6 13 10 6 6 19 23 29 26 23 23 26 19 23 29 23 16 19 23 19 10 13 13 16 10 13 16 13 10 10 13 10 13
0 0 3 6 10 10 6 13 19 19 13 13 13 13 6 10 19 23 23 13 16 23 32 39 42 26 26 29 32 29 19 26 26 23 19 19 10 13 13 10 10 16 13 10 10 6 10 6 6
0 0 0 0 10 10 6 13 16 10 16 10 13 16 10 3 16 23 26 19 23 32 32 35 58 45 39 35 35 35 32 23 32 26 29 23 16 23 23 13 16 13 10 6 10 10 13 3 3
0 0 3 3 10 10 10 13 13 19 16 16 19 23 19 13 19 29 29 29 29 35 35 39 48 35 42 39 35 39 32 26 32 32 35 35 32 35 19 16 16 13 10 10 10 10 10 3 6
0 0 0 3 10 10 10 10 6 16 13 19 16 19 19 13 19 23 16 26 32 29 32 42 52 45 42 52 39 39 42 35 35 39 39 42 32 35 32 29 19 10 10 10 6 10 6 6 6
0 0 0 10 10 10 6 6 6 6 3 10 10 16 26 16 13 19 16 29 35 32 35 32 42 52 48 48 55 45 39 29 35 35 45 42 35 32 29 29 23 10 10 10 10 6 6 3 6
3 0 3 6 10 6 6 6 6 0 3 10 13 10 19 19 19 19 23 29 42 39 35 48 48 55 48 52 52 45 39 35 29 35 39 39 39 32 35 19 13 13 6 3 6 3 3 3 3
0 0 3 3 0 3 3 3 3 3 0 3 13 13 13 13 19 23 26 29 32 42 42 45 52 58 58 42 45 42 39 35 35 35 35 35 35 32 32 23 19 16 16 13 6 3 3 3 0
0 0 0 3 0 0 0 0 3 3 3 3 6 10 10 13 16 23 29 29 29 42 48 45 55 61 52 45 52 45 39 32 39 35 35 35 29 35 29 23 23 23 23 19 10 13 10 6 0
0 0 0 3 0 0 0 0 3 3 3 0 6 10 6 13 13 29 32 32 29 39 52 61 58 52 52 58 45 45 39 35 32 39 35 35 32 29 35 29 23 23 26 26 19 16 13 0 0
0 0 0 0 0 0 0 0 0 3 3 3 6 13 13 13 16 23 29 35 39 52 58 61 58 55 55 52 52 55 42 39 39 42 39 29 32 32 32 35 29 23 29 29 23 16 13 13 10
0 0 0 0 0 0 0 0 0 6 10 10 10 10 23 26 23 23 32 32 42 55 55 68 58 55 61 55 58 61 52 42 45 45 39 32 32 35 35 35 29 29 29 26 19 26 19 13 13
0 0 0 0 0 0 0 3 3 6 13 10 16 16 23 19 16 19 35 35 55 61 65 65 65 58 61 65 61 61 58 55 45 45 39 32 29 29 29 26 26 29 29 26 26 26 23 19 10
0 0 0 0 0 0 0 0 6 6 13 13 13 16 23 29 23 23 29 42 52 58 58 58 65 61 61 61 65 61 58 58 55 48 52 42 32 35 35 32 29 29 26 23 19 19 23 23 19
0 0 0 0 0 0 0 0 3 13 19 16 13 13 16 26 23 23 32 52 48 52 61 58 61 61 61 65 65 65 61 58 55 52 48 42 39 39 42 42 39 32 26 26 19 19 16 23 19
0 0 0 0 0 0 0 0 10 13 16 16 19 23 19 26 19 26 52 52 48 48 58 61 58 58 58 58 65 61 61 61 58 48 45 45 45 42 35 35 35 26 23 23 23 19 19 23 23
0 0 0 0 0 0 0 3 10 13 13 13 16 19 19 26 19 29 39 42 45 45 61 61 58 58 58 61 65 61 61 61 55 55 48 48 48 42 39 35 26 26 19 23 23 23 26 23 23

GEFSSGP_con_cape1000_252.txt.gz
Probability
16 3 0 0 0 0 0 0 0 0 0 0 0 0 0 0 0 0 0 0 16 29 58 77 84 84 90 87 87 90 87 87 90 90 94 90 90 94 87 77 77 77 77 74 65 65 65 68 65
3 0 3 3 0 0 0 0 0 0 0 0 0 3 3 0 0 0 0 13 26 32 48 68 87 87 84 84 87 87 87 87 87 87 87 87 87 87 84 84 84 77 65 61 65 61 61 68 68
0 0 0 0 0 0 0 0 0 0 0 0 0 3 3 0 0 0 6 16 23 35 52 77 94 87 84 84 87 87 84 84 84 84 87 87 84 81 84 90 87 81 68 58 55 55 55 58 55
3 3 0 0 0 0 0 0 0 0 0 0 0 3 3 3 0 0 10 23 26 39 58 77 90 90 87 81 87 84 81 84 84 84 87 90 87 87 90 90 90 74 71 61 65 65 61 55 55
0 0 0 0 0 0 0 0 3 0 0 0 0 3 3 0 0 10 13 23 26 39 58 71 94 90 90 90 87 84 84 84 87 87 87 90 94 94 90 94 87 68 61 61 61 58 58 58 61
0 0 0 0 0 0 0 0 0 0 0 0 0 3 3 0 6 10 23 26 42 52 55 71 90 90 90 90 90 87 84 84 87 87 87 90 94 90 87 87 84 71 65 65 55 55 61 61 61
0 0 0 0 0 0 0 0 0 0 0 0 0 3 3 3 3 6 19 26 35 48 48 58 71 84 87 90 90 84 77 87 87 81 84 87 90 84 90 94 84 77 74 65 65 55 55 58 55
0 0 0 0 0 0 0 3 0 0 0 0 0 3 3 3 3 10 19 16 29 35 42 42 52 52 61 74 90 84 84 84 87 87 87 81 94 84 87 84 90 71 74 68 61 58 58 65 61
0 0 0 0 3 3 3 0 0 0 0 0 0 6 3 6 6 3 13 13 16 26 32 35 26 29 39 55 71 74 74 77 81 74 74 74 23 35 52 71 87 74 71 65 65 68 68 61 55
0 0 3 3 3 3 3 3 6 3 3 3 6 10 10 13 6 3 0 3 3 16 23 23 19 13 16 45 48 35 35 26 26 19 23 10 10 13 48 68 74 68 71 68 65 65 58 52 42
0 0 3 3 3 3 6 10 6 3 3 3 6 6 6 0 0 0 0 0 6 10 16 13 16 6 10 3 16 10 13 6 6 10 6 6 6 6 6 13 23 19 32 29 35 35 29 23 13
3 3 3 3 3 3 6 10 6 3 3 6 6 6 6 6 0 0 0 0 0 3 13 16 13 10 6 3 3 3 10 10 6 6 3 6 6 6 6 10 6 3 6 6 6 10 10 16 13
3 3 3 3 6 10 13 13 13 10 3 6 3 3 6 6 0 0 0 0 0 3 6 6 10 10 6 3 3 13 6 13 6 6 6 3 3 3 3 3 3 3 3 3 10 6 10 13 16
0 3 3 0 0 6 6 13 10 6 3 6 6 6 3 3 6 6 6 6 6 10 6 10 6 6 0 3 3 6 3 6 6 6 6 6 6 3 3 3 3 3 3 3 3 3 6 6 6
0 0 0 0 3 6 3 3 10 3 3 10 6 6 6 6 6 6 6 6 6 10 16 16 10 10 3 3 3 6 6 3 3 3 3 6 6 6 6 3 3 3 3 3 3 3 3 3 3
0 0 0 3 0 0 0 0 3 6 6 3 6 6 6 6 6 6 6 6 6 6 10 10 26 19 10 13 10 13 13 10 13 3 6 10 10 6 3 3 3 3 3 3 3 3 3 3 3
0 0 0 3 6 3 0 0 3 6 3 0 3 3 6 6 6 6 6 6 3 6 3 10 19 13 13 16 16 10 10 16 10 10 6 10 10 6 0 0 3 3 6 6 6 6 3 3 3
0 0 0 0 6 3 3 0 3 10 10 3 3 3 3 3 6 6 10 13 6 6 10 13 16 13 13 10 6 6 10 13 13 10 6 6 16 13 10 6 6 6 6 3 3 3 3 3 3
0 0 0 6 6 3 3 3 6 10 10 10 6 3 3 3 3 10 13 13 16 16 13 10 16 16 13 13 16 16 13 16 16 23 19 16 19 16 10 6 6 3 3 3 0 0 0 0 0
0 0 3 3 3 6 6 3 0 3 6 6 6 10 6 6 10 10 10 13 16 19 16 13 13 13 13 13 10 13 13 13 13 16 16 19 19 13 13 6 6 3 3 0 0 0 0 0 0
0 3 3 0 0 0 0 0 0 0 0 0 0 3 10 10 10 10 10 13 23 19 19 19 10 10 6 13 10 16 13 16 13 19 16 13 16 16 16 10 6 3 0 0 0 0 0 0 0
0 0 0 0 0 0 0 0 0 3 0 0 0 0 0 6 13 13 10 13 19 26 19 13 6 10 6 10 10 13 23 23 19 16 10 13 19 23 19 13 10 6 0 0 3 0 0 0 0
0 0 0 0 0 0 0 0 0 3 3 0 0 0 3 3 10 10 16 16 23 23 23 13 10 6 6 13 10 13 23 19 19 13 10 13 10 13 32 23 13 6 3 3 6 10 3 0 0
0 0 0 0 0 0 0 0 0 0 0 0 0 0 3 3 3 13 13 16 23 26 19 16 6 10 13 19 23 23 23 19 16 19 19 16 13 19 26 32 19 16 13 10 10 6 6 10 6
0 0 0 0 0 0 0 0 0 0 3 3 0 0 3 10 10 13 19 19 26 29 19 19 13 16 19 23 29 32 26 26 23 19 16 16 19 19 23 32 23 19 13 13 6 6 10 13 10
0 0 0 0 0 0 0 0 0 3 3 0 0 0 6 10 13 13 16 23 29 32 23 32 29 26 26 29 29 35 32 26 23 16 16 16 16 16 26 23 26 19 16 13 13 10 10 10 10
0 0 0 0 0 0 0 0 0 6 6 3 3 3 6 10 19 16 16 26 29 29 23 29 32 29 29 32 35 32 29 26 26 23 19 23 16 23 23 19 23 23 16 10 13 10 10 13 13
0 0 0 0 0 0 0 0 0 3 6 16 16 13 10 13 10 16 16 13 13 13 19 23 29 29 26 32 42 45 35 35 29 26 26 26 26 23 26 19 16 23 16 16 13 10 13 10 6
0 0 0 0 0 0 0 0 0 3 10 16 16 23 19 16 19 19 16 10 16 16 16 19 19 26 29 42 42 42 42 32 29 29 29 26 23 19 23 19 16 16 16 16 13 13 13 13 6
0 0 0 0 0 0 0 0 3 10 13 19 23 23 19 16 16 10 6 13 16 23 19 23 26 32 39 39 45 45 39 45 39 35 26 23 19 19 23 19 16 16 19 13 13 10 10 10 6